[[{"header":{"parameterUnit":"m.s-1","parameterCategory":1,"la1":30.2991,"la2":30.254,"lo1":-89.0895,"lo2":-89.0444,"dy":0.0017,"dx":0.0017,"nx":28,"ny":28,"refTime":"2025-04-30T21:00:00:Z","depth":0,"parameterNumber":2,"parameterNumberName":"U-component_of_WINDS"},"data":[0,0,0,0,0,0,0,0,0,0,0,0,0,0,0,0,0,0,0,0,0,0,0,0,0,0,0,0,0,0,0,0,0,0,0,0,0,0,0,0,0,0,0,0,0,0,0,0,0,0,0,0,0,0,0,0,0,0,-1.0756,-1.0757,0,-1.0824,-1.0824,-1.0825,-1.0861,-1.0861,-1.0862,-1.0862,-1.0933,-1.0935,-1.0937,0,0,0,0,0,0,0,0,0,0,0,0,0,-1.066,-1.0662,-1.0756,-1.0757,-1.0757,-1.0823,-1.0824,-1.0825,-1.0861,-1.0861,-1.0862,-1.0862,-1.0933,-1.0935,-1.0937,0,0,0,0,0,0,0,0,0,0,0,0,0,-1.0712,-1.0662,-1.0756,-1.0783,-1.0786,-1.0823,-1.0824,-1.0826,-1.0861,-1.0861,-1.0862,-1.0862,-1.0932,-1.0935,-1.0937,-1.0952,0,0,-1.0946,-1.0947,0,0,0,0,0,0,0,0,-1.0709,-1.0716,-1.0778,-1.0781,-1.0785,-1.0834,-1.0817,-1.0868,-1.0861,-1.0833,-1.0862,-1.0862,-1.09,-1.0906,-1.0918,-1.0956,-1.0959,-1.0946,-1.0948,-1.0949,-1.095,0,0,0,0,0,0,0,-1.0706,-1.0713,-1.0783,-1.0779,-1.0783,-1.0793,-1.0801,-1.0827,-1.0865,-1.0836,-1.0838,-1.0846,-1.0902,-1.0916,-1.092,-1.096,-1.0946,-1.0949,-1.095,-1.0951,-1.1014,-1.1014,0,0,0,0,0,0,-1.0697,-1.071,-1.0781,-1.0785,-1.0747,-1.0795,-1.0803,-1.0818,-1.0865,-1.0872,-1.0846,-1.0847,-1.0911,-1.0917,-1.0923,-1.0944,-1.0949,-1.0952,-1.0953,-1.1014,-1.1014,-1.1014,0,0,0,0,0,0,-1.0695,-1.0703,-1.0778,-1.0748,-1.0758,-1.0796,-1.0813,-1.082,-1.0833,-1.0873,-1.088,-1.0852,-1.0911,-1.0919,-1.0945,-1.0947,-1.0953,-1.0955,-1.1014,-1.1014,-1.1014,-1.0986,0,0,0,0,0,0,-1.0692,-1.0702,-1.0708,-1.0748,-1.076,-1.0798,-1.0813,-1.0821,-1.0837,-1.084,-1.0881,-1.0887,-1.0912,-1.094,-1.0948,-1.0951,-1.0957,-1.1014,-1.1014,-1.1014,-1.0987,-1.0985,-1.0983,0,0,0,0,0,-1.0689,-1.0697,-1.0708,-1.0716,-1.0767,-1.0798,-1.0805,-1.0832,-1.0837,-1.0844,-1.0869,-1.0886,-1.0945,-1.0943,-1.0951,-1.0955,-1.1014,-1.1014,-1.1014,-1.0987,-1.0985,-1.0983,0,0,0,0,0,0,-1.0657,-1.0703,-1.0715,-1.0737,-1.0763,-1.0804,-1.0812,-1.0828,-1.0854,-1.0856,-1.0889,-1.0898,-1.0921,-1.0941,-1.0937,-1.0973,-1.0981,-1.0983,-1.0959,-1.0957,-1.0955,-1.095,-1.096,0,0,0,0,0,-1.0653,-1.0673,-1.0712,-1.0728,-1.074,-1.0774,-1.0788,-1.0807,-1.0836,-1.0847,-1.0875,-1.0902,-1.0927,-1.0943,-1.0968,-1.099,-1.0999,-1.0997,-1.0995,-1.0993,-1.0994,-1.1008,-1.1007,-1.1014,-1.1014,-1.1014,0,0,-1.0644,-1.0672,-1.0682,-1.0722,-1.0745,-1.0766,-1.0783,-1.0804,-1.082,-1.0851,-1.0876,-1.0897,-1.0931,-1.0954,-1.0966,-1.0972,-1.0995,-1.0993,-1.0992,-1.0994,-1.1008,-1.1007,-1.1006,-1.1014,-1.1014,-1.1014,0,0,-1.0639,-1.0661,-1.0677,-1.0699,-1.0732,-1.0755,-1.0758,-1.0796,-1.0811,-1.0838,-1.0861,-1.0881,-1.0923,-1.0946,-1.0963,-1.0966,-1.0983,-1.0974,-1.0965,-1.0977,-1.0977,-1.0976,-1.0978,-1.0978,-1.0975,-1.0975,-1.0975,0,-1.0624,-1.0655,-1.0683,-1.0703,-1.072,-1.0748,-1.0764,-1.0784,-1.0824,-1.0836,-1.0842,-1.0895,-1.092,-1.0949,-1.095,-1.0963,-1.0969,-1.0969,-1.0974,-1.0974,-1.0975,-1.0976,-1.0977,-1.0973,-1.0974,-1.0974,-1.0974,0,-1.0636,-1.0657,-1.0666,-1.0703,-1.0721,-1.0739,-1.0771,-1.0786,-1.0803,-1.0825,-1.0852,-1.0882,-1.0914,-1.0922,-1.0939,-1.0954,-1.0957,-1.0968,-1.0978,-1.0972,-1.0974,-1.0975,-1.0971,-1.0972,-1.0972,-1.0973,0,0,-1.0613,-1.0665,-1.0668,-1.0685,-1.0724,-1.0741,-1.0761,-1.0791,-1.0804,-1.0831,-1.0849,-1.0884,-1.0894,-1.0914,-1.0934,-1.0945,-1.0946,-1.0955,-1.0956,-1.0952,-1.0965,-1.0956,-1.0956,-1.0957,-1.0957,-1.0957,-1.0962,0,-1.0613,-1.0649,-1.0674,-1.07,-1.0721,-1.0747,-1.0765,-1.0791,-1.0812,-1.0833,-1.0857,-1.0881,-1.0893,-1.0905,-1.0917,-1.0943,-1.0949,-1.0943,-1.0975,-1.0975,-1.0965,-1.0958,-1.0949,-1.0951,-1.0963,-1.0963,-1.0963,0,-1.0619,-1.0644,-1.0671,-1.0708,-1.0718,-1.0732,-1.0762,-1.0782,-1.0813,-1.0827,-1.0849,-1.0869,-1.0892,-1.09,-1.0932,-1.0927,-1.0942,-1.0957,-1.0957,-1.0962,-1.0969,-1.0962,-1.0953,-1.0953,-1.0965,-1.0965,-1.0965,0,-1.0599,-1.064,-1.0662,-1.0676,-1.0719,-1.0729,-1.0748,-1.0778,-1.0795,-1.0821,-1.0833,-1.0862,-1.0878,-1.09,-1.0929,-1.0931,-1.0958,-1.0968,-1.0972,-1.0971,-1.0976,-1.0975,-1.097,-1.0985,-1.0985,-1.0985,-1.0985,0,-1.0597,-1.0613,-1.0654,-1.0667,-1.0686,-1.0716,-1.0734,-1.0755,-1.0782,-1.0801,-1.0826,-1.0843,-1.0879,-1.0901,-1.0923,-1.0947,-1.0954,-1.0967,-1.0973,-1.0965,-1.0963,-1.0975,-1.0976,-1.0985,-1.0985,-1.0985,-1.0985,0,-1.0579,-1.0607,-1.0633,-1.0671,-1.0681,-1.0693,-1.0727,-1.0742,-1.0764,-1.0787,-1.0795,-1.083,-1.0857,-1.0887,-1.0925,-1.094,-1.0962,-1.097,-1.0951,-1.0955,-1.0957,-1.0956,-1.0958,-1.096,-1.0974,-1.0974,-1.0974,0,-1.0576,-1.0589,-1.0629,-1.0642,-1.066,-1.0682,-1.0699,-1.0729,-1.0746,-1.0781,-1.0792,-1.0821,-1.0845,-1.0887,-1.0917,-1.0946,-1.0955,-1.0954,-1.096,-1.0951,-1.0955,-1.0954,-1.0956,-1.0952,-1.0952,-1.0952,-1.0951,0,-1.0568,-1.0581,-1.0604,-1.0631,-1.0651,-1.0674,-1.0699,-1.0709,-1.0744,-1.0762,-1.0789,-1.0808,-1.0846,-1.0874,-1.0907,-1.0927,-1.0945,-1.0949,-1.0952,-1.0944,-1.0932,-1.0939,-1.0947,-1.0949,-1.0949,-1.095,-1.095,-1.095,-1.0558,-1.057,-1.06,-1.0625,-1.0646,-1.0669,-1.0684,-1.0708,-1.0731,-1.0763,-1.078,-1.0807,-1.0838,-1.0883,-1.0903,-1.0926,-1.0932,-1.0935,-1.0936,-1.0936,-1.0934,-1.0929,-1.0932,-1.0932,-1.0932,-1.0932,-1.0932,0,-1.0551,-1.0571,-1.0594,-1.0627,-1.0646,-1.0661,-1.0689,-1.0705,-1.0728,-1.0755,-1.0778,-1.081,-1.0837,-1.0869,-1.0899,-1.0911,-1.092,-1.0918,-1.0917,-1.0922,-1.0927,-1.0922,-1.091,-1.091,-1.091,-1.091,-1.091,-1.091,-1.055,-1.0572,-1.0588,-1.0622,-1.0642,-1.0668,-1.0683,-1.0704,-1.0726,-1.076,-1.0782,-1.0802,-1.0831,-1.0864,-1.089,-1.0899,-1.0909,-1.0904,-1.0915,-1.092,-1.0921,-1.0923,-1.0919,-1.0906,-1.0906,-1.0908,-1.0908,-1.0908]},{"header":{"parameterUnit":"m.s-1","parameterCategory":1,"la1":30.2991,"la2":30.254,"lo1":-89.0895,"lo2":-89.0444,"dy":0.0017,"dx":0.0017,"nx":28,"ny":28,"refTime":"2025-04-30T21:00:00:Z","depth":0,"parameterNumber":3,"parameterNumberName":"V-component_of_WINDS"},"data":[0,0,0,0,0,0,0,0,0,0,0,0,0,0,0,0,0,0,0,0,0,0,0,0,0,0,0,0,0,0,0,0,0,0,0,0,0,0,0,0,0,0,0,0,0,0,0,0,0,0,0,0,0,0,0,0,0,0,4.8025,4.8025,0,4.8015,4.8015,4.8015,4.7944,4.7942,4.794,4.7939,4.7928,4.793,4.7931,0,0,0,0,0,0,0,0,0,0,0,0,0,4.7982,4.7983,4.8025,4.8025,4.8025,4.8015,4.8015,4.8015,4.7944,4.7942,4.794,4.7938,4.7928,4.793,4.7931,0,0,0,0,0,0,0,0,0,0,0,0,0,4.7989,4.7984,4.8025,4.7988,4.7985,4.8015,4.8015,4.8015,4.7944,4.7942,4.7939,4.7937,4.7927,4.7929,4.7931,4.7996,0,0,4.7938,4.7939,0,0,0,0,0,0,0,0,4.7989,4.7991,4.7994,4.7991,4.7987,4.7978,4.7996,4.8009,4.7945,4.796,4.7938,4.7935,4.7947,4.7947,4.7951,4.7996,4.7995,4.7938,4.7939,4.794,4.794,0,0,0,0,0,0,0,4.7989,4.7991,4.8021,4.7994,4.799,4.7972,4.797,4.7998,4.7968,4.7958,4.7953,4.7953,4.7945,4.7949,4.795,4.7995,4.7938,4.794,4.7941,4.7942,4.809,4.8093,0,0,0,0,0,0,4.7993,4.7991,4.8021,4.8021,4.7982,4.7975,4.7973,4.7984,4.7968,4.7963,4.7955,4.795,4.7947,4.7948,4.795,4.8022,4.794,4.7942,4.7943,4.8087,4.8091,4.8094,0,0,0,0,0,0,4.7993,4.7997,4.8022,4.8005,4.8006,4.7978,4.7991,4.7985,4.7989,4.7965,4.796,4.7965,4.7945,4.7947,4.7985,4.8021,4.7943,4.7945,4.8084,4.8088,4.8092,4.817,0,0,0,0,0,0,4.7992,4.7997,4.8022,4.8006,4.8008,4.8058,4.7993,4.7986,4.7993,4.7986,4.7973,4.7969,4.7943,4.7982,4.7987,4.8022,4.7946,4.8081,4.8086,4.8091,4.8164,4.8176,4.8186,0,0,0,0,0,4.799,4.8044,4.8023,4.8027,4.8038,4.806,4.8061,4.803,4.7996,4.802,4.8005,4.7969,4.8017,4.7986,4.7991,4.8028,4.8078,4.8084,4.809,4.8159,4.8174,4.8186,0,0,0,0,0,0,4.8066,4.8042,4.8018,4.8069,4.8067,4.8048,4.8077,4.8047,4.8055,4.8048,4.801,4.8008,4.805,4.8043,4.801,4.8089,4.8041,4.8049,4.8092,4.8106,4.8117,4.8117,4.7948,0,0,0,0,0,4.8089,4.8108,4.8086,4.8133,4.8133,4.8106,4.8114,4.809,4.8087,4.8086,4.8073,4.8071,4.8085,4.8095,4.8107,4.8163,4.8158,4.8191,4.8202,4.8212,4.8218,4.8244,4.8258,4.8114,4.8114,4.8113,0,0,4.8135,4.8124,4.8139,4.8148,4.8144,4.8164,4.8105,4.8131,4.8145,4.809,4.8124,4.8115,4.811,4.8156,4.8176,4.8151,4.8257,4.8219,4.8227,4.8228,4.8252,4.8266,4.8278,4.8118,4.8117,4.8116,0,0,4.823,4.8225,4.8262,4.8259,4.8253,4.8234,4.8243,4.8228,4.822,4.8253,4.8212,4.8229,4.8255,4.8252,4.8254,4.8347,4.8314,4.8353,4.8411,4.8437,4.8449,4.8458,4.8489,4.8501,4.8359,4.8359,4.836,0,4.8289,4.8318,4.8285,4.8312,4.8316,4.8267,4.8303,4.8302,4.8301,4.8304,4.8277,4.8307,4.8301,4.8344,4.8367,4.8371,4.8379,4.8353,4.845,4.8459,4.8468,4.8497,4.8509,4.8364,4.8363,4.8363,4.8362,0,4.839,4.8411,4.8441,4.844,4.8448,4.848,4.845,4.8462,4.8438,4.8422,4.8456,4.8447,4.8454,4.8464,4.8441,4.8504,4.8489,4.8457,4.8407,4.8487,4.8513,4.8524,4.837,4.8369,4.8367,4.8366,0,0,4.8531,4.851,4.8522,4.852,4.8509,4.8525,4.8554,4.8561,4.8571,4.8572,4.8594,4.8617,4.8586,4.8589,4.8565,4.8589,4.866,4.8553,4.8552,4.8571,4.8726,4.8749,4.8762,4.8639,4.8641,4.8643,4.8726,0,4.8621,4.8668,4.8639,4.8691,4.8708,4.8662,4.8687,4.8683,4.8668,4.8681,4.8665,4.8681,4.8641,4.8642,4.8663,4.8647,4.869,4.8641,4.8658,4.8659,4.8658,4.8777,4.8801,4.888,4.8736,4.8738,4.8739,0,4.8731,4.8735,4.8789,4.8772,4.8779,4.8802,4.8805,4.8819,4.8813,4.88,4.8803,4.8773,4.8799,4.8753,4.8788,4.8755,4.876,4.8753,4.8756,4.8754,4.8702,4.8776,4.8905,4.8916,4.8756,4.8754,4.8753,0,4.8825,4.8845,4.8879,4.8879,4.8862,4.8878,4.8872,4.8863,4.8869,4.8872,4.8875,4.8882,4.8886,4.8891,4.8864,4.8833,4.8902,4.8853,4.8891,4.8892,4.8906,4.8905,4.9035,4.8914,4.8914,4.8913,4.8913,0,4.8927,4.8961,4.892,4.8941,4.8977,4.8943,4.898,4.8969,4.8961,4.8978,4.8939,4.8956,4.892,4.8933,4.8912,4.8943,4.8945,4.8935,4.8929,4.8937,4.8938,4.8939,4.8932,4.8916,4.8916,4.8915,4.8915,0,4.9038,4.9013,4.9046,4.9027,4.9022,4.905,4.9033,4.9051,4.9034,4.9056,4.9059,4.9032,4.9045,4.9019,4.9029,4.9015,4.9058,4.9044,4.9059,4.9054,4.9093,4.9088,4.9225,4.9241,4.9112,4.9114,4.9115,0,4.9103,4.9128,4.9111,4.9119,4.9114,4.9129,4.9134,4.9101,4.9108,4.9102,4.9121,4.913,4.9136,4.9159,4.9141,4.9148,4.9132,4.918,4.9133,4.914,4.913,4.9128,4.9129,4.9189,4.919,4.9192,4.9193,0,4.922,4.9206,4.9215,4.9219,4.9226,4.9228,4.9227,4.9236,4.9201,4.9211,4.9223,4.9228,4.9237,4.9247,4.925,4.9243,4.9211,4.9208,4.9216,4.9224,4.9231,4.9225,4.9083,4.9204,4.9203,4.9202,4.9202,4.9201,4.9309,4.9328,4.9318,4.9328,4.9324,4.9324,4.9339,4.9323,4.9333,4.9337,4.9318,4.9334,4.9326,4.9326,4.9323,4.9335,4.9313,4.9327,4.9329,4.9333,4.9338,4.9231,4.9335,4.9335,4.9335,4.9334,4.9334,0,4.9422,4.9413,4.9423,4.9422,4.943,4.94,4.9397,4.9406,4.9421,4.9416,4.9422,4.9436,4.9445,4.9427,4.9432,4.9446,4.9431,4.9448,4.9446,4.9444,4.9358,4.9348,4.9459,4.9459,4.9459,4.9459,4.9459,4.9459,4.9481,4.9511,4.9495,4.9522,4.9513,4.9528,4.9529,4.9528,4.9523,4.954,4.9547,4.9535,4.9524,4.9529,4.9536,4.953,4.9533,4.9554,4.9544,4.9463,4.945,4.9439,4.943,4.9556,4.9556,4.9628,4.9629,4.963]}]]